DKFGT EDMO-EDML

Flight info

Callsign DKFGT
Flight time 0h 30m
Altitude 9000
Route DCT
Aircraft DV20/L-V/L

Departure

Time 2026-04-15 16:18
Airport Oberpfaffenhofen Airport (EDMO)

Arrival

Time 2026-04-15 16:49
Airport Landshut Airfield (EDML)
Time Latitude Longitude Altitude Speed Heading
2026-04-15 16:15 48.07427 11.27338 1939 ft 0 kts 42°
2026-04-15 16:17 48.07440 11.27354 1939 ft 17 kts 42°
2026-04-15 16:17 48.07664 11.27667 1946 ft 66 kts 43°
2026-04-15 16:18 48.08035 11.28178 2174 ft 65 kts 39°
2026-04-15 16:18 48.08434 11.28592 2329 ft 77 kts 31°
2026-04-15 16:18 48.08623 11.28770 2473 ft 73 kts 33°
2026-04-15 16:18 48.09020 11.29251 2655 ft 74 kts 55°
2026-04-15 16:19 48.09062 11.29953 2924 ft 61 kts 94°
2026-04-15 16:19 48.09034 11.30583 3032 ft 74 kts 77°
2026-04-15 16:19 48.09334 11.31182 3122 ft 80 kts 41°
2026-04-15 16:19 48.09774 11.31724 3223 ft 86 kts 44°
2026-04-15 16:20 48.10218 11.32364 3333 ft 84 kts 62°
2026-04-15 16:20 48.10506 11.33245 3256 ft 100 kts 66°
2026-04-15 16:20 48.10778 11.34177 3316 ft 100 kts 68°
2026-04-15 16:20 48.11028 11.35133 3376 ft 98 kts 70°
2026-04-15 16:21 48.11257 11.36032 3538 ft 89 kts 70°
2026-04-15 16:21 48.11472 11.36834 3772 ft 77 kts 70°
2026-04-15 16:21 48.11699 11.37685 3634 ft 103 kts 68°
2026-04-15 16:21 48.12000 11.38657 3628 ft 103 kts 68°
2026-04-15 16:22 48.12282 11.39683 3558 ft 108 kts 69°
2026-04-15 16:22 48.12543 11.40793 3309 ft 116 kts 77°
2026-04-15 16:22 48.12749 11.41928 3237 ft 111 kts 75°
2026-04-15 16:22 48.12966 11.43028 3130 ft 110 kts 77°
2026-04-15 16:23 48.13140 11.44146 3046 ft 108 kts 77°
2026-04-15 16:23 48.13370 11.45175 3132 ft 98 kts 68°
2026-04-15 16:23 48.13657 11.46203 2924 ft 116 kts 68°
2026-04-15 16:23 48.13950 11.47303 2879 ft 111 kts 69°
2026-04-15 16:24 48.14237 11.48385 2774 ft 112 kts 68°
2026-04-15 16:24 48.14524 11.49465 2619 ft 115 kts 69°
2026-04-15 16:24 48.14809 11.50563 2549 ft 113 kts 65°
2026-04-15 16:24 48.15137 11.51635 2508 ft 111 kts 64°
2026-04-15 16:25 48.15460 11.52674 2476 ft 107 kts 63°
2026-04-15 16:25 48.15783 11.53674 2486 ft 104 kts 63°
2026-04-15 16:25 48.16110 11.54605 2587 ft 99 kts 60°
2026-04-15 16:25 48.16457 11.55514 2622 ft 102 kts 60°
2026-04-15 16:26 48.16793 11.56458 2651 ft 105 kts 64°
2026-04-15 16:26 48.17076 11.57437 2706 ft 103 kts 68°
2026-04-15 16:26 48.17335 11.58426 2776 ft 101 kts 67°
2026-04-15 16:26 48.17618 11.59476 2589 ft 116 kts 69°
2026-04-15 16:27 48.17903 11.60598 2448 ft 117 kts 68°
2026-04-15 16:27 48.18176 11.61747 2294 ft 115 kts 73°
2026-04-15 16:27 48.18427 11.62772 2409 ft 103 kts 63°
2026-04-15 16:27 48.18795 11.63730 2291 ft 110 kts 61°
2026-04-15 16:28 48.19147 11.64721 2262 ft 109 kts 62°
2026-04-15 16:28 48.19475 11.65676 2337 ft 102 kts 62°
2026-04-15 16:28 48.19803 11.66592 2419 ft 101 kts 62°
2026-04-15 16:28 48.20163 11.67597 2279 ft 113 kts 63°
2026-04-15 16:29 48.20516 11.68615 2276 ft 112 kts 62°
2026-04-15 16:29 48.20887 11.69655 2171 ft 113 kts 62°
2026-04-15 16:29 48.21240 11.70659 2241 ft 106 kts 61°
2026-04-15 16:29 48.21608 11.71616 2220 ft 107 kts 59°
2026-04-15 16:30 48.21916 11.72603 2232 ft 104 kts 76°
2026-04-15 16:30 48.22099 11.73690 2112 ft 112 kts 73°
2026-04-15 16:30 48.22295 11.74733 2230 ft 101 kts 71°
2026-04-15 16:30 48.22510 11.75740 2264 ft 104 kts 72°
2026-04-15 16:31 48.22816 11.76760 2165 ft 113 kts 57°
2026-04-15 16:31 48.23261 11.77695 2173 ft 110 kts 53°
2026-04-15 16:31 48.23708 11.78608 2178 ft 107 kts 55°
2026-04-15 16:31 48.24154 11.79545 2125 ft 111 kts 55°
2026-04-15 16:32 48.24578 11.80477 2159 ft 105 kts 56°
2026-04-15 16:32 48.25171 11.81036 2112 ft 112 kts
2026-04-15 16:32 48.25916 11.80849 2161 ft 103 kts 351°
2026-04-15 16:32 48.26592 11.80642 2199 ft 98 kts 353°
2026-04-15 16:33 48.27257 11.80476 2198 ft 99 kts 354°
2026-04-15 16:33 48.27921 11.80325 2182 ft 97 kts 353°
2026-04-15 16:33 48.28591 11.80247 2171 ft 96 kts 359°
2026-04-15 16:33 48.29254 11.80229 2104 ft 94 kts
2026-04-15 16:34 48.29830 11.80242 2096 ft 74 kts
2026-04-15 16:34 48.30306 11.80271 2117 ft 70 kts
2026-04-15 16:34 48.30836 11.80275 2091 ft 83 kts 359°
2026-04-15 16:34 48.31416 11.80227 2138 ft 83 kts 359°
2026-04-15 16:35 48.32009 11.80133 2172 ft 83 kts 355°
2026-04-15 16:35 48.32588 11.80029 2186 ft 85 kts 355°
2026-04-15 16:35 48.33187 11.79896 2155 ft 92 kts 352°
2026-04-15 16:35 48.33726 11.79455 2055 ft 87 kts 320°
2026-04-15 16:36 48.34181 11.78971 2037 ft 76 kts 344°
2026-04-15 16:36 48.34678 11.78988 1973 ft 72 kts 12°
2026-04-15 16:36 48.35156 11.79168 1925 ft 71 kts 15°
2026-04-15 16:36 48.35613 11.79376 1893 ft 68 kts 18°
2026-04-15 16:37 48.36034 11.79611 1891 ft 64 kts 22°
2026-04-15 16:37 48.36468 11.79919 1889 ft 76 kts 26°
2026-04-15 16:37 48.36967 11.80292 1921 ft 82 kts 27°
2026-04-15 16:37 48.37471 11.80697 1962 ft 82 kts 28°
2026-04-15 16:38 48.37972 11.81114 2024 ft 79 kts 29°
2026-04-15 16:38 48.38491 11.81458 1999 ft 86 kts 11°
2026-04-15 16:38 48.39083 11.81400 1986 ft 89 kts 346°
2026-04-15 16:38 48.39680 11.81142 1988 ft 89 kts 351°
2026-04-15 16:39 48.40278 11.81045 2045 ft 84 kts 358°
2026-04-15 16:39 48.40849 11.81027 2114 ft 78 kts
2026-04-15 16:39 48.41403 11.81061 2127 ft 82 kts
2026-04-15 16:39 48.41979 11.81132 2122 ft 85 kts
2026-04-15 16:40 48.42572 11.81233 2099 ft 89 kts 11°
2026-04-15 16:40 48.43206 11.81383 2015 ft 91 kts
2026-04-15 16:40 48.43809 11.81425 2107 ft 83 kts
2026-04-15 16:40 48.44388 11.81441 2110 ft 86 kts
2026-04-15 16:41 48.44992 11.81401 2097 ft 93 kts 359°
2026-04-15 16:41 48.45614 11.81465 2171 ft 79 kts 29°
2026-04-15 16:41 48.45900 11.82159 2131 ft 84 kts 70°
2026-04-15 16:41 48.46098 11.83043 2140 ft 90 kts 71°
2026-04-15 16:42 48.46282 11.83946 2183 ft 89 kts 72°
2026-04-15 16:42 48.46468 11.84834 2266 ft 87 kts 72°
2026-04-15 16:42 48.46645 11.85648 2428 ft 78 kts 71°
2026-04-15 16:42 48.46794 11.86300 2501 ft 80 kts 71°
2026-04-15 16:43 48.46861 11.86603 2531 ft 80 kts 71°
2026-04-15 16:43 48.47060 11.87390 2598 ft 82 kts 70°
2026-04-15 16:43 48.47277 11.88214 2609 ft 86 kts 69°
2026-04-15 16:43 48.47493 11.89048 2644 ft 87 kts 70°
2026-04-15 16:44 48.47652 11.89922 2688 ft 86 kts 79°
2026-04-15 16:44 48.47831 11.90784 2701 ft 83 kts 73°
2026-04-15 16:44 48.48037 11.91617 2678 ft 85 kts 70°
2026-04-15 16:44 48.48254 11.92487 2533 ft 95 kts 71°
2026-04-15 16:45 48.48492 11.93397 2354 ft 90 kts 68°
2026-04-15 16:45 48.48692 11.94236 2314 ft 79 kts 71°
2026-04-15 16:45 48.48853 11.94961 2327 ft 69 kts 74°
2026-04-15 16:45 48.49028 11.95626 2230 ft 68 kts 63°
2026-04-15 16:46 48.49259 11.96246 2156 ft 71 kts 62°
2026-04-15 16:46 48.49476 11.96917 2135 ft 74 kts 66°
2026-04-15 16:46 48.49662 11.97601 2021 ft 64 kts 68°
2026-04-15 16:46 48.49812 11.98186 1933 ft 60 kts 66°
2026-04-15 16:47 48.49950 11.98779 1867 ft 60 kts 70°
2026-04-15 16:47 48.50081 11.99385 1789 ft 60 kts 69°
2026-04-15 16:47 48.50231 11.99982 1712 ft 63 kts 66°
2026-04-15 16:47 48.50387 12.00618 1627 ft 65 kts 69°
2026-04-15 16:48 48.50557 12.01207 1561 ft 59 kts 64°
2026-04-15 16:48 48.50714 12.01762 1504 ft 57 kts 66°
2026-04-15 16:48 48.50870 12.02317 1438 ft 57 kts 66°
2026-04-15 16:48 48.51028 12.02859 1323 ft 54 kts 66°
2026-04-15 16:49 48.51117 12.03174 1316 ft 43 kts 66°
2026-04-15 16:49 48.51214 12.03518 1321 ft 25 kts 65°
2026-04-15 16:49 48.51267 12.03602 1322 ft 11 kts 21°
2026-04-15 16:49 48.51273 12.03605 1322 ft 0 kts 21°
2026-04-15 16:53 48.51294 12.03599 1321 ft 8 kts 290°
2026-04-15 16:54 48.51307 12.03489 1320 ft 0 kts 293°